Terminal Aerodrome Forecast
Issued by NWS Melbourne, FL

Home | Current Version | Previous Version | Text Only | Print | Product List | Glossary On
Versions: 1 2 3 4 5 6 7 8 9 10 11 12 13 14 15 16 17 18 19 20 21 22
000
FTUS42 KMLB 030307 AAA
TAFDAB
TAF AMD
KDAB 030307Z 0303/0324 02003KT 5SM BR SCT003 SCT015
      TEMPO 0303/0305 1SM BR VV003
     FM030500 00000KT 1SM BR VV002
     FM031500 05004KT P6SM SCT005
     FM031700 09008KT P6SM SCT030=

USA.gov is the U.S. government's official web portal to all federal, state and local government web resources and services.